This is the latest recevied weather packets stored in our database for station/object KD2FKI. If no packets are shown the sender has not sent any weather packets the latest 10 day(s).
| Time | Temp. | Humidity | Pressure | Rain* | Wind** | Luminosity | Snow |
|---|---|---|---|---|---|---|---|
| 1778136040 | 12.78° C | 92% | - | 0 mm | - | - | - |
| 1778135445 | 12.78° C | 93% | - | 0 mm | - | - | - |
| 1778134835 | 12.78° C | 95% | - | 0 mm | - | - | - |
| 1778134243 | 12.78° C | 96% | - | 0 mm | - | - | - |
| 1778133653 | 12.78° C | 96% | - | 0.51 mm | - | - | - |
| 1778133040 | 13.33° C | 97% | - | 0.51 mm | - | - | - |
| 1778132449 | 13.33° C | 97% | - | 0.51 mm | - | - | - |
| 1778131838 | 13.33° C | 97% | - | 0.51 mm | - | - | - |
| 1778131265 | 13.33° C | 97% | - | 0.51 mm | - | - | - |
| 1778130635 | 13.89° C | 96% | - | 0.51 mm | - | - | - |
| 1778130043 | 13.89° C | 95% | - | 0 mm | - | - | - |
| 1778129433 | 14.44° C | 94% | - | 0 mm | - | - | - |
| 1778128841 | 14.44° C | 90% | - | 0 mm | - | - | - |
| 1778128231 | 14.44° C | 88% | - | 0 mm | - | - | - |
| 1778127638 | 15° C | 89% | - | 0 mm | - | - | - |
| 1778127051 | 15° C | 87% | - | 0 mm | - | - | - |
| 1778126436 | 15.56° C | 84% | - | 0 mm | - | - | - |
| 1778125849 | 16.11° C | 85% | - | 0 mm | - | - | - |
| 1778125252 | 16.11° C | 85% | - | 0 mm | - | - | - |
| 1778124646 | 16.11° C | 85% | - | 0 mm | - | - | - |
| 1778124032 | 16.67° C | 83% | - | 0 mm | - | - | - |
| 1778123442 | 16.67° C | 81% | - | 0 mm | - | - | - |
| 1778122847 | 16.67° C | 80% | - | 0 mm | - | - | - |
| 1778122242 | 17.22° C | 80% | - | 0 mm | - | - | - |
| 1778121644 | 17.22° C | 81% | - | 0 mm | - | - | - |
* Rain latest hour (hover to see other rain measurements)
** Current wind speed in m/s (hover to see current wind gust speed)